Wind_Speed
18 19 20 20 23 25 28 32 34 35 36 36 37 36 37 38 39 40 40 39 39 40 40 41 41 41 41 41 41 40 39 40 39 38 38 37 35 34 34 34 34 34 34 35 37 37 36 36 35 34 33 32 31 29 29 29 30 30 29 27 25 25 24 24 23 23 23 23 23 23 24 24 24 24 25 25 26 27 27 28 27 27 27 28 28
19 19 20 20 21 21 23 26 30 34 36 37 37 37 37 38 39 39 39 40 40 40 40 41 41 40 40 40 39 39 39 40 39 37 36 36 35 34 34 34 34 35 35 36 38 38 38 37 35 34 33 32 32 31 32 32 32 32 30 28 27 27 26 25 24 24 24 23 24 25 25 24 25 25 25 26 26 27 28 28 28 28 28 28 28
19 20 20 22 22 22 22 23 25 28 31 34 36 37 37 38 39 39 39 40 40 40 40 41 40 39 39 39 38 38 39 39 38 37 36 36 36 35 35 36 36 36 36 37 39 39 38 37 36 35 34 34 34 34 34 34 34 33 31 29 28 28 26 25 25 25 24 24 25 26 25 25 25 25 25 26 26 27 28 28 28 28 28 28 28
18 19 20 22 23 24 24 24 24 25 27 28 31 34 36 37 38 39 39 40 41 41 40 40 38 37 38 38 38 40 41 39 40 41 40 39 38 38 38 38 38 38 38 39 40 39 38 38 37 36 36 36 36 36 36 35 35 33 32 31 30 29 27 26 26 26 25 25 26 26 25 26 26 25 25 26 26 26 27 28 28 28 28 28 28
19 20 21 22 23 25 26 26 26 27 26 25 26 30 33 35 36 38 39 40 41 40 39 37 36 36 38 39 40 43 44 43 45 46 43 41 41 40 40 39 38 38 38 39 40 40 39 39 38 38 38 38 38 38 37 36 35 35 33 33 32 30 29 28 28 26 26 27 27 26 26 26 25 24 25 25 25 26 27 27 28 28 28 28 28
21 21 23 23 24 25 26 27 27 28 27 26 27 28 30 32 34 36 37 38 39 38 37 35 35 36 37 39 40 42 44 44 45 44 42 41 40 39 39 38 37 36 37 39 39 40 40 40 40 40 40 40 40 39 38 37 37 36 35 34 33 31 31 30 28 27 27 28 27 26 26 26 25 25 25 25 25 26 26 27 28 28 28 28 28
20 21 23 25 26 26 26 27 28 28 28 29 30 30 29 30 31 33 35 36 37 36 36 36 37 38 37 37 38 39 42 42 41 40 39 37 37 38 38 38 36 35 35 37 38 40 41 41 42 42 42 42 41 41 40 38 38 38 37 36 35 34 33 31 29 29 29 28 27 27 26 26 26 25 25 25 26 26 26 27 27 28 28 28 29
22 22 24 25 27 28 27 28 29 29 29 31 32 31 31 30 31 32 34 35 35 36 36 37 38 38 38 37 37 37 38 39 39 37 36 36 37 38 38 38 37 35 35 35 37 39 41 43 43 44 44 44 43 42 41 39 39 40 39 39 37 36 34 31 31 31 30 28 28 27 26 26 26 25 25 25 26 27 26 27 27 27 28 28 29
25 27 28 29 30 31 30 28 28 29 30 31 32 33 33 32 32 32 33 34 35 36 37 37 38 38 38 38 38 37 36 36 36 36 37 39 40 40 40 40 39 38 37 36 37 39 41 43 45 46 46 45 44 43 42 41 41 42 42 40 39 37 34 33 33 32 30 29 29 28 27 26 26 26 26 26 26 27 27 27 27 27 28 28 29
25 27 29 31 31 32 33 31 29 29 30 30 31 33 34 34 34 34 34 33 34 35 36 37 37 37 38 38 37 37 36 35 35 36 38 40 42 42 42 42 41 40 39 38 38 39 41 43 45 47 47 46 45 44 44 43 43 43 43 42 40 38 37 36 35 33 32 31 30 29 28 27 27 27 26 26 27 27 27 27 27 28 28 29 30
28 29 29 29 29 30 32 32 31 30 30 30 30 32 34 35 36 36 36 35 35 35 35 35 36 36 37 37 36 36 35 35 36 36 37 38 40 41 41 41 42 42 41 40 39 40 41 43 45 46 47 47 47 46 45 43 43 44 44 44 43 41 39 38 36 35 34 33 31 30 29 28 28 28 27 27 27 27 27 27 27 28 29 29 30
32 30 28 27 26 27 28 30 31 30 30 30 30 31 33 35 37 37 38 38 38 37 37 36 35 35 35 35 35 34 34 35 36 36 36 37 38 39 40 41 42 42 42 42 41 40 41 43 45 46 47 48 48 46 45 44 44 45 46 46 45 43 42 40 38 36 35 34 32 31 31 30 29 28 28 28 28 27 27 28 28 28 29 30 30
28 26 25 24 23 23 24 25 27 29 30 30 30 31 33 35 37 38 38 38 40 40 41 39 37 36 35 34 34 33 33 34 35 36 37 37 38 40 41 41 42 43 43 43 42 40 41 43 44 46 47 47 47 47 46 46 46 46 47 48 47 46 44 42 40 37 36 35 34 33 32 31 30 30 30 30 29 28 28 28 28 29 30 30 31
23 23 23 22 22 22 22 23 24 26 27 29 30 30 31 34 37 38 37 37 39 41 42 43 42 40 37 35 34 34 34 35 35 36 37 38 38 39 41 41 42 44 44 43 42 41 41 42 43 45 46 47 47 48 48 48 48 48 48 49 48 47 45 43 42 40 38 37 36 35 34 33 32 31 31 31 30 30 29 29 29 30 30 31 31
22 24 26 27 28 27 24 23 23 24 24 25 25 25 26 28 32 35 35 35 37 39 41 43 44 43 42 40 38 36 36 36 37 37 38 39 38 38 39 40 41 42 42 42 42 42 42 42 43 44 46 47 48 49 50 50 50 49 49 49 49 48 47 45 44 42 41 39 38 37 36 35 33 33 32 32 31 31 30 30 30 30 31 31 32
28 30 32 32 32 29 26 24 23 23 22 23 23 23 23 23 25 27 29 31 33 36 38 40 41 42 43 43 42 41 40 39 39 38 38 39 38 38 38 38 39 39 40 41 41 42 43 43 43 44 45 47 49 50 51 52 52 51 50 50 51 50 49 47 46 44 42 40 40 39 38 36 35 34 34 33 33 32 32 31 31 31 31 32 33
37 37 35 33 31 30 29 27 25 23 21 22 23 24 24 24 23 23 24 26 28 31 34 36 38 39 40 41 43 43 44 43 42 41 40 40 40 40 40 39 39 40 40 40 41 41 42 43 43 44 45 47 49 51 52 53 53 53 52 51 51 51 50 49 48 46 44 43 42 41 39 38 37 36 36 35 34 34 33 33 32 32 32 33 34
36 36 35 33 32 32 32 31 30 28 26 25 25 25 26 26 26 26 25 25 26 28 30 33 35 36 37 39 40 42 43 44 44 44 44 44 45 45 44 43 43 42 41 41 42 43 43 43 43 44 45 46 48 51 53 54 54 55 54 52 52 52 51 51 50 48 46 45 44 43 41 40 39 38 38 37 36 35 35 34 33 33 33 33 34
33 35 35 35 36 36 37 37 36 35 34 33 32 31 31 30 30 30 30 29 28 28 29 30 32 34 35 36 38 40 41 43 44 45 45 46 48 49 49 48 47 46 45 45 45 45 45 45 46 45 46 47 48 51 53 55 56 56 56 54 53 53 53 53 52 50 48 47 46 45 44 42 41 40 40 39 38 37 36 35 35 34 34 34 34
36 37 38 39 40 41 42 43 43 42 40 38 38 38 38 38 37 36 35 35 34 33 33 32 33 34 35 35 37 38 39 41 43 44 45 47 50 52 52 51 50 49 49 49 48 48 48 48 48 48 48 48 50 51 53 55 57 58 58 56 54 54 55 55 53 51 49 49 48 47 46 44 43 42 41 40 39 39 38 37 36 35 35 34 35
38 38 38 39 39 40 41 43 45 45 43 40 38 38 39 41 42 41 40 40 40 39 39 38 37 37 38 38 38 39 39 40 41 43 45 47 49 50 51 51 52 52 52 52 52 52 51 51 51 51 51 51 51 53 54 56 58 59 59 58 56 56 56 56 55 53 51 49 49 48 48 47 45 44 43 42 41 41 40 39 37 36 35 35 35
38 37 37 36 36 36 36 38 40 41 43 43 41 39 38 38 40 41 41 41 41 42 42 42 42 42 42 42 43 43 42 42 42 44 45 46 47 48 49 51 52 53 54 54 55 55 55 54 54 54 54 54 53 54 55 57 58 59 60 61 59 57 58 58 57 55 52 50 49 48 49 48 47 46 45 44 43 42 42 40 39 37 36 36 36
41 40 39 38 37 37 36 37 38 39 41 42 44 44 43 41 40 40 40 40 40 40 41 42 44 44 45 45 45 46 46 46 46 46 46 47 47 48 50 52 53 55 56 57 58 59 59 59 59 58 58 57 57 56 56 57 58 60 61 62 61 59 59 59 59 57 54 51 50 50 50 50 49 48 47 45 45 44 43 42 40 39 38 37 37
42 41 40 38 38 39 39 41 41 42 42 42 44 46 47 47 44 43 42 42 42 42 40 41 42 44 44 45 45 45 46 47 48 48 49 49 50 50 51 52 54 56 58 59 61 62 63 63 62 62 61 60 60 59 58 57 58 59 60 61 62 61 60 61 60 58 56 54 53 52 52 51 51 50 48 47 46 45 44 43 42 40 39 39 39
41 42 41 39 39 40 42 42 42 42 42 42 42 44 46 48 48 47 46 45 45 45 44 43 42 43 44 44 44 44 44 45 45 45 46 47 49 50 51 51 53 55 57 59 61 63 64 64 64 63 62 61 60 60 59 58 57 57 58 60 61 62 62 62 61 59 58 56 56 55 54 53 52 52 50 49 47 46 46 45 44 42 41 40 40
45 47 47 46 45 44 44 43 42 41 41 41 41 41 42 44 46 47 47 46 46 45 45 45 45 44 45 45 45 45 44 44 44 44 43 43 44 45 47 48 49 51 53 55 58 60 62 63 63 63 62 61 60 59 59 58 57 56 57 58 60 61 62 62 61 61 59 58 57 57 56 55 55 54 52 50 48 48 47 46 45 44 43 42 42
52 51 50 49 48 47 47 46 45 44 43 41 40 39 40 41 43 45 46 46 46 45 45 45 45 45 45 46 47 47 46 46 45 45 45 44 43 42 43 44 45 46 48 49 52 55 57 59 60 61 61 61 60 59 58 58 57 57 56 57 58 59 60 61 61 61 60 59 59 58 58 58 57 55 53 51 50 49 49 47 46 45 44 44 44
54 53 51 49 48 48 49 49 48 47 46 44 42 40 40 40 41 43 44 46 47 46 46 45 45 45 45 45 46 47 48 48 47 47 46 46 46 45 44 44 44 44 45 45 46 48 50 53 55 58 60 61 60 59 58 58 58 57 56 56 56 57 58 60 61 61 61 60 60 60 60 59 58 56 55 53 51 51 50 49 47 46 46 46 46
53 52 49 48 48 48 48 48 48 48 47 46 45 44 43 42 41 41 42 44 46 48 47 47 46 45 45 45 45 46 48 49 50 49 48 47 47 47 47 46 46 46 45 45 44 45 46 47 49 53 57 59 60 59 58 58 57 57 57 56 56 57 58 59 60 61 61 61 61 61 61 60 58 57 56 54 53 52 51 50 48 47 46 46 47
48 47 46 46 46 47 47 46 46 46 46 45 45 45 45 44 43 42 41 42 44 46 48 48 48 47 46 45 45 45 46 47 49 50 50 50 49 48 48 47 47 47 47 46 46 45 45 45 46 48 51 54 57 58 58 57 56 55 55 56 56 57 58 59 60 61 61 61 61 61 61 60 59 58 56 55 54 53 52 51 49 48 47 47 48
44 44 44 45 46 47 46 45 45 45 45 45 45 45 45 44 44 43 42 41 42 43 45 46 48 48 48 47 45 44 44 45 47 49 51 52 51 50 49 48 48 47 47 47 46 46 46 46 46 46 47 49 51 54 55 56 55 54 53 53 54 55 57 58 60 61 62 62 62 62 61 61 60 58 56 55 54 54 53 52 50 48 48 48 49
46 46 47 48 48 48 47 46 46 46 46 45 45 45 45 45 44 43 42 42 42 43 44 45 46 47 48 48 47 44 43 42 43 46 48 50 51 51 51 49 49 48 47 47 47 46 46 46 46 46 45 46 47 49 52 54 54 54 53 52 52 53 54 55 56 58 59 60 61 62 61 60 59 57 56 55 54 54 53 52 50 49 49 49 50
49 50 51 51 50 49 48 48 47 47 47 47 47 47 47 47 46 45 44 44 44 44 45 45 45 45 46 47 47 45 43 41 41 41 43 46 48 50 50 50 49 48 48 48 47 47 46 46 46 47 47 46 46 47 49 51 52 53 54 54 53 53 53 53 54 55 56 58 59 60 60 59 57 56 55 54 55 54 53 52 51 50 50 50 51
53 54 52 51 49 48 49 49 48 47 48 48 48 49 50 49 49 47 46 45 45 45 45 45 45 44 44 44 45 45 43 41 40 39 40 41 43 45 46 47 48 48 48 48 48 47 47 46 46 47 48 48 48 49 50 50 51 52 53 53 53 53 53 53 53 53 54 56 57 57 57 56 55 54 54 54 54 53 53 52 51 50 51 52 52
55 54 52 50 49 49 49 48 48 48 48 49 50 50 51 51 51 50 49 48 47 46 44 43 43 42 42 41 42 42 41 41 40 39 39 38 39 40 41 43 45 46 47 47 47 47 47 47 47 47 48 49 50 51 51 51 51 51 52 52 51 52 52 52 52 52 53 54 54 54 54 53 53 54 54 54 53 53 52 51 50 51 52 52 53
53 53 52 52 51 50 50 48 47 47 48 49 50 51 52 52 51 51 50 48 46 44 43 41 40 39 39 39 39 39 39 39 39 39 39 39 38 38 39 40 42 43 45 46 46 47 47 47 47 47 48 49 49 50 51 51 51 51 51 51 51 50 51 50 50 51 51 52 52 52 52 52 53 53 53 53 52 52 51 51 51 51 52 52 52
50 51 51 51 50 50 49 48 47 47 48 49 50 50 51 51 50 50 48 46 43 41 39 38 37 36 36 36 37 37 37 37 38 39 39 40 40 39 39 39 40 41 42 43 44 45 46 46 47 47 48 49 50 50 50 50 50 50 50 51 50 49 49 49 49 49 50 50 51 51 51 52 52 52 52 52 51 51 50 50 50 51 51 51 51
47 49 50 50 49 49 48 47 47 48 49 49 49 49 50 50 49 48 46 44 41 38 36 34 34 33 34 34 34 35 35 36 37 37 38 39 40 40 40 39 39 39 40 40 41 43 44 45 46 47 48 49 50 50 50 49 49 48 48 50 49 48 48 48 49 49 49 49 50 50 51 51 51 50 50 50 50 50 50 50 50 50 50 51 51
47 49 50 50 49 48 47 47 47 48 48 47 47 48 48 48 47 46 45 42 39 36 33 32 32 32 32 32 33 34 35 35 36 36 37 38 38 39 39 38 37 38 38 38 38 39 41 42 43 45 47 49 50 51 50 49 48 46 46 48 49 48 47 48 48 48 49 49 49 49 49 50 49 48 48 49 49 49 49 49 49 49 50 51 50
49 50 51 52 52 50 48 47 47 47 47 46 46 47 47 46 45 43 42 40 38 34 31 30 31 31 31 32 32 33 34 34 35 35 35 35 36 36 36 36 35 36 36 36 35 36 37 38 41 43 45 48 49 50 49 48 47 45 45 46 47 47 47 47 47 47 48 48 48 48 48 47 46 46 47 47 48 48 48 47 48 48 49 49 48
51 52 53 54 54 53 50 48 47 46 46 45 46 46 45 44 42 40 39 38 36 33 30 30 30 30 30 30 31 32 32 33 33 34 33 33 32 32 32 32 33 33 33 32 32 33 34 37 39 42 44 46 48 48 47 47 47 45 44 45 46 46 46 46 46 46 46 46 46 46 46 45 44 45 46 46 46 46 46 47 47 47 47 47 47
52 53 54 55 56 55 51 47 45 44 44 45 45 45 43 41 39 38 37 36 35 32 30 29 29 28 29 29 30 30 31 31 31 31 31 30 29 29 28 28 29 30 30 30 30 31 34 36 39 41 43 44 45 45 45 45 45 43 42 43 45 45 44 44 44 44 45 45 44 44 43 43 43 44 45 45 44 44 45 46 47 47 46 46 46
54 55 55 56 56 53 49 46 45 44 44 44 43 43 41 39 37 35 35 35 33 30 28 28 27 27 28 28 29 29 30 30 29 29 28 28 27 26 26 25 25 26 27 28 29 31 34 36 38 40 41 42 42 42 41 41 40 39 38 38 41 42 42 42 43 43 43 42 42 42 43 43 43 43 43 43 43 43 44 45 46 46 46 45 45
55 56 56 55 54 51 48 46 45 44 43 42 41 40 39 37 35 34 33 32 29 27 26 26 27 27 28 28 28 29 29 29 28 27 26 26 25 25 24 23 23 24 25 26 29 31 33 35 36 36 37 37 36 36 35 35 35 35 35 35 37 39 40 41 41 41 41 41 41 42 43 43 43 43 42 41 42 42 43 44 44 45 45 45 46
57 57 55 53 52 50 47 45 43 42 41 40 39 38 37 34 32 31 30 28 25 24 24 25 26 27 28 28 28 27 27 27 26 26 25 25 24 24 22 22 22 23 24 25 27 29 30 31 32 32 31 31 31 31 31 32 32 33 33 34 35 37 39 40 40 40 40 41 42 43 43 43 42 42 41 41 41 41 42 42 42 43 44 45 46
58 56 53 51 50 48 45 43 42 40 39 38 36 35 34 32 30 28 25 23 22 22 23 24 26 27 28 28 27 26 26 25 25 24 24 24 24 23 22 21 21 21 22 22 23 25 25 26 26 27 27 27 28 28 29 30 31 32 33 34 35 37 38 39 40 41 41 41 42 42 42 41 41 41 41 41 41 40 40 40 41 42 43 44 44
56 53 51 49 48 46 44 42 40 39 39 37 35 32 30 29 27 25 22 21 21 22 23 24 26 27 27 27 26 25 25 24 23 23 22 22 23 23 22 21 20 20 20 20 20 21 22 22 23 23 24 25 25 26 27 28 29 31 32 34 36 37 38 39 41 42 42 42 41 41 41 41 40 40 40 40 40 39 38 38 39 39 40 41 41
52 49 47 46 44 43 41 39 39 39 38 35 32 29 27 26 24 22 20 20 20 22 23 25 26 26 26 26 25 24 24 23 22 22 21 21 22 22 23 23 23 22 22 21 21 21 21 22 23 24 25 26 26 27 28 29 31 32 33 35 36 37 38 38 39 40 41 41 41 40 39 39 39 39 38 38 38 38 37 36 36 37 37 38 39
47 45 44 42 41 39 37 36 37 36 34 31 28 26 24 23 21 20 20 20 21 22 23 24 25 25 25 24 24 23 23 22 21 21 21 21 21 21 22 23 24 25 25 25 25 25 25 26 27 27 28 29 29 29 31 32 33 34 34 35 35 36 36 36 36 37 38 39 40 40 38 37 37 37 36 36 35 35 35 35 35 35 36 37 38
44 42 41 39 36 34 33 34 34 33 29 26 23 22 21 20 19 19 20 21 21 22 22 23 24 24 23 22 22 22 22 21 21 20 20 20 20 21 21 22 24 25 26 27 27 28 29 30 30 30 31 32 32 32 33 34 34 34 34 34 35 35 35 35 35 36 37 37 38 38 38 37 36 35 34 34 33 33 33 34 34 34 35 36 38
41 40 38 35 32 30 30 30 30 28 25 22 20 19 18 17 18 19 20 22 22 22 22 23 23 22 22 21 20 20 20 20 20 20 19 19 19 20 21 21 22 23 25 26 27 28 29 31 31 31 32 32 32 33 33 34 33 33 33 33 33 34 34 34 34 35 36 36 36 37 37 36 35 34 33 32 31 31 32 33 33 34 35 36 36
Wind_Direction
280 274 271 267 264 262 259 257 255 254 255 256 258 258 257 256 255 254 252 251 249 248 249 250 250 250 249 249 249 248 247 246 246 246 248 250 251 250 251 252 251 251 247 236 230 229 230 232 234 233 232 231 231 231 232 233 233 234 236 238 239 241 245 249 252 256 260 264 267 270 271 273 275 276 276 277 277 277 277 276 275 275 275 276 276
282 279 277 273 270 266 262 260 257 256 254 254 256 258 258 257 257 256 254 253 252 251 252 253 254 255 255 255 253 251 249 249 249 250 252 252 251 248 249 249 248 247 243 234 230 229 230 233 234 234 233 232 231 231 233 234 235 236 238 238 239 241 245 248 252 256 260 264 267 269 271 274 275 275 276 275 275 275 275 275 274 273 273 274 274
280 279 279 278 276 272 267 263 260 260 258 256 257 257 257 256 256 255 255 254 254 254 254 256 256 257 257 257 255 253 251 250 251 251 250 248 245 242 243 244 244 243 240 234 231 230 230 233 235 236 234 233 232 233 234 236 236 237 238 237 239 242 246 249 252 256 260 263 266 269 272 274 274 275 275 275 274 273 272 272 272 272 272 272 272
278 275 275 276 277 275 272 266 262 260 260 259 260 259 259 257 256 256 256 256 256 257 258 259 259 257 255 254 252 250 250 249 248 248 245 242 240 239 240 242 242 242 239 235 233 232 231 233 235 236 235 234 233 234 235 236 236 237 237 238 240 243 246 249 251 255 259 262 265 269 272 273 275 276 275 274 273 272 271 271 271 271 271 271 271
276 271 270 271 273 274 273 270 266 262 260 261 260 260 259 258 257 256 256 256 258 259 259 259 258 256 254 252 249 247 247 245 244 244 242 240 239 239 240 242 244 244 242 238 236 235 234 234 235 237 236 235 234 235 236 236 236 237 237 238 241 243 246 248 251 255 258 261 265 269 271 273 275 275 274 273 272 271 271 270 271 271 271 271 271
275 272 271 271 271 270 270 269 268 266 262 260 257 256 255 255 255 254 254 255 256 257 257 257 257 256 255 254 252 250 250 249 248 248 246 245 244 243 244 244 246 247 246 242 240 238 238 237 237 237 237 236 235 236 237 237 237 238 239 239 241 243 245 248 251 255 256 260 264 267 270 272 274 275 274 274 272 270 270 270 270 271 271 272 272
270 273 274 275 273 270 267 265 265 266 265 262 258 254 252 251 251 251 251 252 252 252 253 254 255 256 256 256 256 255 255 255 255 254 252 252 250 248 247 247 247 248 247 244 242 240 239 239 239 238 238 237 236 236 237 238 238 239 239 239 241 242 245 248 251 253 255 259 262 265 268 271 273 274 274 274 273 271 270 270 270 271 272 272 273
265 270 273 276 275 272 269 265 262 262 263 263 261 256 251 249 247 246 247 247 248 248 249 251 254 256 257 258 259 259 259 259 258 256 255 255 252 250 249 247 247 247 246 244 242 240 239 239 239 239 238 238 237 237 237 238 238 238 238 239 240 242 246 249 249 252 256 258 261 263 266 268 270 273 273 273 273 273 271 271 271 272 272 273 273
271 273 275 277 276 273 269 267 264 261 260 260 259 257 253 248 244 243 243 244 245 246 247 249 251 254 256 257 257 259 260 261 259 255 251 251 249 248 247 247 247 246 245 244 241 240 238 238 239 239 239 238 238 239 238 238 237 238 238 239 241 244 246 247 249 252 256 257 259 262 264 265 268 270 271 272 273 273 273 272 273 273 273 273 273
282 281 283 283 281 276 269 266 265 262 259 257 255 254 251 248 244 241 240 239 240 242 244 245 247 249 252 253 255 257 259 260 260 255 250 248 247 246 246 247 248 248 247 246 244 241 240 239 239 239 240 239 239 239 239 239 239 239 239 240 242 244 245 247 249 252 254 256 258 260 261 263 265 267 269 271 271 272 274 274 273 273 273 273 273
300 298 297 294 290 284 276 271 267 264 261 258 255 252 249 246 244 241 238 235 234 236 238 241 243 244 247 249 251 253 256 257 258 257 254 252 249 248 248 248 249 249 250 249 247 245 242 241 240 239 240 240 240 239 239 240 240 240 240 240 241 243 245 246 248 251 253 256 257 259 260 261 262 264 267 268 270 272 273 273 273 273 273 273 274
305 306 307 304 298 290 283 277 271 267 264 261 258 254 250 246 242 240 237 235 233 232 233 235 238 240 243 245 247 249 251 254 255 255 256 255 253 251 250 249 249 250 250 250 250 248 246 244 242 241 240 240 240 240 240 240 240 239 239 240 240 242 244 246 248 250 253 255 256 257 259 260 261 263 264 266 268 271 272 273 274 274 274 274 275
304 309 312 312 309 304 298 290 281 274 271 268 264 257 252 247 242 238 235 234 234 233 232 232 232 234 237 240 243 245 246 249 252 254 254 254 252 252 250 249 249 249 249 250 251 252 251 248 246 244 243 242 242 241 241 241 240 240 240 240 241 242 244 246 248 250 251 253 255 256 258 260 260 260 261 263 266 269 272 274 275 275 274 275 275
307 313 317 320 320 318 315 310 302 293 286 279 272 263 255 249 243 239 236 234 233 233 233 232 231 230 230 232 236 240 241 244 248 251 253 253 251 250 250 250 249 248 249 250 253 255 253 251 249 247 245 244 242 241 241 241 241 241 241 241 241 242 244 246 247 248 250 252 255 257 258 259 258 259 260 262 264 267 270 272 274 275 276 276 276
312 317 320 320 318 318 317 314 311 307 302 294 285 275 265 256 248 243 240 236 234 234 233 233 232 231 229 228 228 231 235 238 241 245 248 250 250 250 250 250 250 248 248 250 253 255 254 252 251 248 246 244 242 241 241 241 241 242 242 241 241 241 243 245 247 248 250 252 254 256 258 258 258 259 260 261 263 265 268 270 273 275 276 277 277
311 312 314 313 312 312 311 310 306 303 303 302 299 293 285 275 263 255 250 245 240 238 238 237 236 235 233 231 229 228 230 232 234 238 242 245 248 249 248 249 249 248 247 247 249 251 252 252 251 249 247 245 243 241 240 241 242 242 242 242 241 241 242 244 246 248 250 251 253 255 257 258 259 259 259 261 263 265 267 269 271 274 276 277 277
309 309 310 312 312 310 308 306 303 300 299 301 302 301 298 293 285 276 269 262 254 249 247 245 244 242 241 239 237 235 234 234 234 235 237 240 242 243 243 244 245 245 245 245 245 245 246 248 249 250 248 245 244 242 240 240 241 242 242 242 241 241 242 244 246 247 248 250 252 254 256 258 259 259 260 262 263 265 266 268 270 272 274 275 277
308 307 305 305 307 308 309 308 305 302 300 300 302 302 301 300 296 292 287 280 273 265 260 256 254 251 249 247 245 243 242 242 243 242 240 239 240 240 240 239 239 241 242 242 241 242 242 243 245 247 247 246 244 243 241 240 240 241 242 242 241 241 241 243 244 245 247 249 251 254 256 258 259 260 261 261 263 264 265 267 268 270 271 274 276
309 307 305 304 303 303 305 306 308 306 302 299 297 298 298 298 296 295 293 290 285 279 273 268 264 261 258 255 252 249 246 246 247 249 249 248 246 242 240 238 237 237 238 238 238 238 239 240 241 243 244 244 243 243 242 240 239 240 241 241 241 241 242 243 244 245 247 249 251 253 255 257 259 260 260 261 262 263 265 266 267 268 270 273 274
312 311 309 307 306 303 301 301 303 306 306 303 298 296 295 295 294 291 290 289 288 285 281 277 273 270 267 264 261 259 256 253 251 252 256 257 253 247 243 242 239 238 238 237 237 237 237 238 239 240 241 241 241 241 241 240 239 239 240 240 240 240 242 243 244 245 247 248 250 252 255 257 258 259 260 261 262 263 264 265 266 268 270 272 273
313 312 310 309 308 306 303 301 300 302 305 306 303 299 296 294 294 292 290 287 285 283 282 279 277 275 273 271 269 267 264 262 260 258 260 260 258 254 251 248 245 244 242 240 239 238 238 238 237 238 239 239 239 239 239 239 239 238 238 239 238 239 241 243 244 245 246 248 250 252 254 255 257 258 259 260 262 263 264 265 266 268 270 271 273
313 312 310 310 308 306 304 302 301 300 300 301 302 302 300 297 295 294 292 289 286 282 279 278 276 274 273 271 270 269 267 265 263 261 260 260 259 260 259 257 254 251 248 245 244 242 240 239 238 238 238 239 238 238 238 238 238 238 238 238 238 238 239 242 244 245 246 248 250 252 254 255 256 257 258 260 261 262 263 264 266 268 270 271 272
313 311 310 310 308 306 304 302 301 300 299 298 297 298 299 299 297 295 293 292 289 286 281 277 275 273 271 270 268 267 266 264 262 261 260 259 259 260 261 261 260 257 253 251 248 245 242 240 239 239 238 238 238 238 237 237 237 238 238 238 238 238 240 242 244 246 247 249 251 252 253 254 255 257 258 259 260 261 262 264 266 268 270 271 272
311 309 309 308 306 304 303 301 301 301 300 299 297 296 297 297 297 295 293 291 289 288 285 281 277 274 271 269 268 266 264 263 261 259 259 258 257 257 259 260 260 259 256 254 250 247 243 241 239 238 238 238 238 237 237 237 237 238 238 238 238 238 240 242 244 246 247 249 250 252 253 254 255 256 257 258 259 260 261 263 265 268 270 271 271
313 313 312 310 307 305 304 304 304 304 304 302 300 299 297 295 295 293 292 290 288 286 285 283 281 277 274 272 270 268 266 264 262 260 258 257 255 255 255 257 259 260 259 256 253 249 246 243 240 239 238 238 238 237 237 237 237 237 238 238 238 238 240 242 244 246 247 248 250 251 253 254 254 255 256 257 259 260 261 262 264 267 269 270 271
317 316 315 313 311 310 308 307 307 307 306 305 302 300 297 295 293 293 292 291 289 287 285 283 281 279 277 275 273 271 269 267 265 262 260 258 257 255 254 254 256 257 259 259 257 254 250 246 243 241 240 239 238 237 237 236 236 236 237 238 238 238 240 242 243 245 247 248 250 251 252 253 254 254 255 256 258 259 260 261 263 266 268 269 270
317 315 314 313 312 311 309 309 309 308 307 305 303 300 297 296 294 294 293 292 291 290 288 285 283 280 277 275 274 273 272 270 268 265 263 261 259 258 257 256 255 255 256 257 258 256 254 250 247 245 243 241 239 238 237 236 235 235 236 236 237 238 240 242 243 245 246 248 249 250 251 252 253 253 254 255 257 258 259 260 262 264 267 269 270
315 314 313 312 311 310 309 309 309 308 308 307 305 303 300 298 296 294 293 292 292 291 289 287 285 282 279 276 273 271 271 271 270 269 267 264 262 261 260 258 257 256 256 256 257 257 256 253 251 249 247 244 242 240 239 237 236 235 235 236 237 238 240 241 243 244 246 247 248 249 251 251 252 252 253 254 255 257 259 259 261 263 266 268 270
312 311 310 310 309 308 308 308 308 308 307 307 306 304 301 298 296 294 292 291 290 289 289 288 286 284 282 279 275 271 268 267 267 268 267 266 265 264 262 260 259 257 256 256 256 257 257 256 255 253 250 247 244 242 241 239 238 237 236 236 237 238 239 241 242 244 245 246 247 249 250 250 251 251 252 252 254 256 257 259 260 263 265 268 270
310 309 308 308 308 307 306 307 307 307 306 305 304 302 300 298 296 295 293 291 290 289 288 287 286 285 283 281 278 274 270 266 264 263 264 264 264 264 263 262 260 258 256 255 255 255 256 256 256 255 253 250 247 245 243 241 239 238 237 237 237 238 240 241 242 243 244 245 247 248 248 249 249 249 250 251 253 255 257 258 260 262 265 268 269
311 310 310 311 310 308 307 306 307 307 306 306 304 303 302 300 298 296 295 293 292 291 290 288 286 285 283 281 279 278 275 270 266 262 261 261 261 261 262 262 261 259 256 255 254 254 254 254 254 255 254 252 250 247 245 243 241 239 238 238 238 239 240 241 242 243 244 245 246 246 247 247 247 248 249 250 252 254 256 258 259 262 265 267 268
315 315 315 316 315 312 310 309 308 308 307 306 306 305 304 303 301 300 298 297 295 294 293 291 288 285 283 281 280 279 278 276 272 268 264 262 260 260 260 261 261 260 258 256 254 253 253 253 253 253 254 253 252 250 247 244 242 241 240 240 240 241 242 242 243 244 245 245 245 245 245 245 246 247 248 250 252 254 256 258 260 262 264 266 267
316 315 316 316 316 314 313 312 311 310 309 308 308 307 306 305 304 302 301 300 298 296 294 291 289 287 283 281 279 279 279 278 277 274 271 268 265 263 262 261 261 261 259 258 256 254 253 252 253 253 253 252 252 250 248 245 243 242 241 242 242 243 244 244 245 245 245 245 244 244 244 244 245 246 248 250 252 254 256 258 260 262 264 265 265
314 315 315 314 313 313 312 312 311 310 309 309 309 309 308 307 307 305 304 303 300 298 295 292 289 287 284 281 279 278 278 279 279 278 276 274 271 268 266 264 263 262 261 260 258 256 254 253 253 253 252 251 250 248 246 243 242 241 241 241 242 243 244 245 245 245 244 244 244 243 244 244 245 247 249 251 253 255 257 258 260 262 264 264 264
314 316 314 313 312 311 311 310 310 309 309 309 309 309 308 308 308 307 306 305 303 300 296 292 289 286 284 281 279 277 277 278 279 279 279 277 275 273 271 269 267 265 263 261 260 258 256 254 253 253 253 251 249 246 244 241 240 240 240 240 241 243 244 244 245 244 243 243 243 243 244 245 246 248 250 252 254 256 257 258 260 262 263 262 262
315 316 315 313 312 311 310 310 309 308 307 307 308 308 307 307 308 307 307 306 304 301 297 293 289 286 284 282 280 278 277 277 278 279 279 279 278 276 274 272 270 268 266 264 261 259 258 255 253 253 253 252 249 246 243 241 239 239 239 239 240 242 243 244 243 243 243 243 243 244 245 247 249 251 252 254 255 257 258 259 260 261 261 261 261
317 318 317 315 312 310 309 307 307 306 306 307 307 307 307 307 307 307 306 306 305 301 297 293 289 286 285 284 282 280 278 277 277 278 278 279 279 278 277 275 273 271 268 266 263 260 258 256 253 252 252 251 249 245 243 241 239 239 239 239 240 241 242 243 243 243 243 243 245 246 248 249 251 252 254 255 256 257 258 259 259 259 259 260 260
320 321 320 317 313 310 307 305 304 305 306 307 308 308 307 307 308 308 307 307 305 301 297 293 289 287 286 285 284 282 281 279 279 278 278 279 279 279 278 277 276 274 271 268 264 261 258 256 253 251 251 250 247 244 241 240 238 238 238 240 240 240 240 241 242 243 244 245 246 247 249 251 252 253 255 256 257 257 258 258 258 258 259 259 259
321 322 322 320 316 311 307 305 304 305 306 308 308 308 308 309 309 309 308 307 304 301 297 293 290 289 288 287 286 285 284 283 282 281 281 280 279 279 278 278 278 276 274 270 265 260 257 254 251 250 249 249 247 243 241 239 238 237 238 239 240 240 240 241 242 243 245 246 247 249 250 251 253 254 255 256 256 257 257 257 258 258 258 259 257
321 321 322 321 319 315 310 307 306 307 308 308 308 308 309 309 310 309 307 306 303 301 298 293 292 291 290 290 289 288 287 286 285 284 283 282 281 279 278 279 278 278 277 273 266 260 256 253 250 248 247 248 246 242 240 239 238 237 238 239 240 241 242 242 243 244 245 247 248 249 251 252 254 255 255 256 256 257 257 257 257 257 258 257 255
319 320 320 321 320 318 313 310 309 309 309 309 309 309 309 309 309 307 306 304 302 301 298 294 293 293 292 291 291 289 289 289 288 287 285 283 281 280 279 279 278 277 276 272 266 261 257 253 250 247 245 244 243 240 238 238 237 237 238 240 241 242 244 245 246 246 247 247 248 249 250 252 254 255 256 256 256 257 257 257 257 256 256 255 253
318 318 319 320 319 318 314 311 310 310 309 309 309 310 310 308 307 306 304 302 301 300 298 295 295 294 294 294 293 293 292 291 289 288 286 284 281 279 279 279 278 277 274 270 265 261 259 256 250 246 243 241 239 238 237 237 237 237 239 241 243 244 245 246 247 248 248 249 250 250 250 251 253 254 255 256 256 256 257 258 258 256 254 252 251
317 317 318 318 317 317 314 311 311 310 310 310 310 310 309 308 306 304 302 301 301 300 297 296 297 297 298 298 297 297 295 293 291 288 286 284 282 280 280 280 281 281 278 275 270 265 262 258 252 245 241 238 236 235 235 236 237 237 239 242 244 245 246 247 248 249 250 250 251 252 252 253 254 254 254 255 255 255 255 256 257 256 254 252 250
316 316 316 316 315 315 312 311 311 310 310 310 310 309 309 308 305 302 300 300 300 298 297 298 299 300 301 301 301 299 297 294 292 289 286 283 281 280 281 282 285 285 282 277 272 266 260 256 251 245 240 237 235 235 235 235 236 237 238 240 243 245 247 247 248 249 250 251 252 253 254 255 255 255 255 254 253 253 252 252 253 254 255 254 253
315 315 316 315 314 313 312 311 311 310 310 310 310 309 309 308 305 302 300 300 299 298 299 301 303 304 304 304 303 301 298 295 292 289 286 282 280 279 280 281 283 283 279 273 267 262 256 251 247 243 239 237 236 235 235 235 236 237 237 238 241 244 246 248 249 249 250 252 253 254 255 255 256 256 255 254 253 252 251 250 250 250 252 253 254
315 316 315 314 313 313 312 312 312 312 311 310 309 309 308 306 304 304 303 303 302 301 303 305 306 306 306 305 304 301 298 295 293 289 286 281 278 276 276 276 277 276 273 267 261 257 252 248 244 241 238 237 237 237 237 237 237 238 239 240 242 244 246 249 251 251 251 252 254 255 256 256 255 255 255 255 254 253 251 250 249 249 250 252 254
314 314 314 313 313 313 313 313 313 313 311 310 309 309 307 305 305 306 306 306 306 306 307 308 307 307 306 304 303 301 298 296 293 289 285 280 277 274 272 271 271 270 268 264 260 256 252 248 245 242 240 240 240 241 242 243 244 245 246 247 247 248 249 251 252 254 254 254 254 254 254 254 254 254 254 255 255 253 251 250 249 249 250 252 253
313 313 312 313 313 314 314 314 314 314 312 311 310 310 308 307 308 309 309 308 308 308 309 309 307 307 306 304 302 301 299 296 293 289 284 279 275 272 270 268 267 265 264 262 259 257 254 253 251 249 248 248 248 249 251 252 252 252 252 252 253 253 253 254 255 256 257 258 257 255 254 253 254 253 253 253 254 254 253 252 252 251 251 251 251
313 312 313 314 314 315 315 316 317 316 314 312 312 311 310 310 312 312 310 309 309 309 309 309 308 307 306 304 303 301 299 297 294 290 285 280 275 271 268 266 265 264 263 262 261 259 257 256 255 254 255 255 255 256 257 257 257 257 257 257 257 257 257 256 256 256 256 258 259 259 257 255 254 254 253 253 253 254 254 253 252 251 251 251 251
313 313 314 314 315 317 318 320 320 319 316 315 313 312 312 314 314 312 309 308 309 310 310 309 309 308 306 304 304 303 301 300 297 293 289 284 279 274 270 266 264 263 263 262 262 261 261 260 259 259 259 258 259 259 259 259 260 259 259 258 257 256 256 255 254 254 255 256 258 260 260 259 258 256 256 255 254 253 253 251 250 249 249 249 250
315 315 315 316 318 320 321 322 323 322 320 317 314 313 314 315 312 310 308 309 309 311 311 310 310 309 307 306 305 303 302 301 299 296 292 288 283 279 275 271 267 265 263 263 262 261 262 262 262 262 262 262 262 261 260 260 259 259 258 257 257 256 256 255 255 255 255 256 256 258 259 260 261 260 259 257 255 254 252 251 250 249 249 250 251
Height
3053 3051 3051 3050 3050 3050 3050 3050 3051 3052 3052 3053 3053 3054 3055 3056 3056 3056 3058 3060 3061 3061 3061 3062 3062 3063 3064 3065 3066 3067 3068 3069 3069 3070 3072 3073 3074 3075 3075 3076 3077 3078 3079 3080 3081 3082 3083 3084 3085 3087 3089 3090 3092 3093 3094 3095 3095 3096 3097 3098 3099 3100 3100 3101 3101 3102 3102 3103 3103 3104 3104 3104 3105 3105 3105 3105 3105 3105 3105 3106 3106 3107 3107 3108 3108
3049 3048 3047 3047 3046 3046 3046 3046 3046 3046 3047 3048 3049 3050 3052 3052 3052 3053 3055 3055 3056 3057 3058 3058 3059 3060 3061 3062 3063 3064 3065 3065 3066 3068 3069 3070 3070 3071 3071 3072 3072 3073 3074 3075 3076 3077 3078 3080 3081 3083 3085 3087 3088 3089 3090 3090 3091 3092 3094 3095 3095 3096 3096 3097 3098 3098 3099 3100 3100 3100 3100 3101 3101 3102 3102 3102 3102 3102 3102 3102 3102 3103 3104 3104 3104
3047 3046 3045 3045 3044 3043 3043 3042 3042 3042 3043 3044 3045 3046 3047 3047 3048 3049 3050 3051 3052 3053 3054 3054 3056 3057 3058 3058 3060 3061 3060 3061 3063 3064 3064 3064 3065 3066 3066 3066 3067 3068 3068 3069 3071 3072 3074 3076 3078 3079 3081 3083 3084 3085 3086 3087 3088 3089 3090 3091 3092 3092 3093 3094 3094 3095 3096 3096 3096 3096 3097 3097 3098 3098 3098 3098 3098 3098 3098 3098 3098 3099 3100 3100 3101
3044 3044 3043 3042 3041 3040 3039 3039 3038 3038 3039 3039 3041 3041 3041 3042 3044 3045 3046 3047 3048 3049 3049 3051 3052 3054 3054 3054 3055 3056 3055 3057 3058 3057 3057 3058 3059 3061 3061 3062 3063 3063 3064 3065 3066 3068 3070 3072 3074 3075 3077 3078 3080 3080 3082 3083 3084 3086 3087 3087 3088 3089 3090 3090 3091 3092 3092 3092 3092 3093 3094 3093 3094 3094 3094 3094 3094 3094 3094 3094 3094 3095 3095 3096 3097
3041 3041 3040 3039 3038 3037 3036 3035 3035 3034 3034 3035 3036 3036 3036 3038 3039 3041 3042 3042 3043 3044 3046 3047 3048 3048 3048 3048 3049 3049 3049 3050 3050 3050 3051 3053 3055 3056 3057 3059 3060 3060 3061 3062 3063 3065 3066 3068 3070 3071 3073 3074 3075 3076 3078 3079 3080 3082 3083 3083 3084 3085 3086 3086 3087 3088 3089 3089 3089 3089 3089 3089 3090 3090 3090 3090 3091 3090 3090 3090 3090 3090 3091 3092 3092
3038 3037 3036 3035 3034 3034 3033 3032 3031 3031 3031 3031 3030 3030 3030 3031 3033 3035 3036 3037 3038 3040 3042 3043 3043 3043 3043 3043 3043 3043 3044 3044 3045 3047 3049 3051 3052 3054 3055 3056 3057 3058 3058 3059 3060 3062 3063 3064 3066 3067 3068 3070 3071 3072 3074 3075 3076 3077 3079 3079 3080 3081 3082 3082 3084 3084 3084 3085 3085 3085 3085 3085 3086 3086 3086 3086 3087 3087 3086 3086 3086 3086 3087 3087 3088
3034 3033 3033 3032 3031 3030 3029 3028 3027 3027 3027 3027 3026 3025 3025 3026 3027 3028 3030 3031 3033 3035 3037 3038 3037 3038 3038 3038 3039 3039 3039 3040 3043 3045 3047 3048 3050 3050 3051 3052 3053 3054 3054 3055 3056 3057 3059 3060 3061 3063 3064 3065 3067 3068 3069 3071 3072 3074 3074 3075 3076 3077 3077 3078 3080 3080 3080 3081 3081 3081 3081 3081 3081 3082 3082 3082 3082 3082 3083 3083 3082 3083 3083 3083 3084
3031 3030 3029 3029 3028 3027 3026 3025 3024 3023 3023 3022 3022 3022 3021 3021 3021 3022 3023 3024 3027 3029 3031 3032 3032 3033 3033 3034 3035 3035 3035 3037 3039 3041 3043 3044 3045 3045 3046 3047 3048 3049 3050 3051 3052 3053 3054 3055 3056 3058 3059 3060 3062 3063 3065 3067 3068 3069 3069 3070 3071 3072 3073 3074 3075 3075 3076 3077 3077 3077 3077 3077 3077 3078 3078 3078 3078 3078 3079 3079 3079 3079 3079 3079 3079
3028 3027 3026 3025 3024 3023 3022 3021 3020 3019 3018 3018 3017 3017 3017 3016 3016 3016 3017 3018 3020 3022 3024 3025 3026 3027 3028 3029 3029 3030 3032 3033 3034 3036 3038 3039 3039 3040 3041 3041 3042 3044 3045 3046 3047 3047 3049 3050 3051 3052 3054 3056 3057 3059 3061 3062 3063 3063 3065 3066 3067 3068 3069 3069 3070 3071 3072 3072 3072 3073 3073 3073 3073 3073 3074 3074 3074 3074 3074 3075 3075 3075 3075 3075 3075
3025 3023 3022 3021 3020 3019 3018 3017 3017 3015 3014 3013 3013 3013 3012 3011 3011 3011 3012 3013 3014 3015 3016 3018 3019 3021 3021 3022 3024 3025 3027 3028 3028 3030 3031 3032 3033 3034 3035 3036 3037 3039 3039 3041 3042 3043 3044 3045 3046 3047 3049 3051 3053 3054 3055 3057 3058 3059 3060 3061 3062 3063 3064 3064 3065 3066 3066 3067 3067 3068 3069 3069 3069 3069 3070 3070 3070 3070 3070 3070 3070 3070 3070 3070 3070
3021 3020 3019 3018 3017 3016 3015 3014 3013 3012 3011 3010 3009 3009 3008 3007 3007 3006 3006 3006 3007 3008 3009 3010 3012 3013 3014 3015 3017 3019 3021 3022 3022 3023 3025 3026 3027 3028 3030 3031 3032 3034 3035 3035 3036 3038 3039 3040 3041 3042 3044 3045 3046 3048 3050 3052 3053 3054 3055 3056 3056 3057 3058 3059 3060 3060 3061 3062 3063 3063 3064 3064 3064 3065 3065 3065 3065 3066 3066 3066 3066 3066 3066 3065 3066
3017 3017 3017 3016 3015 3013 3012 3011 3010 3009 3008 3007 3006 3005 3004 3003 3003 3001 3000 3000 3001 3001 3001 3002 3004 3005 3007 3008 3010 3012 3014 3015 3015 3017 3019 3020 3022 3024 3025 3025 3027 3028 3029 3029 3031 3032 3034 3034 3036 3037 3038 3039 3041 3043 3045 3046 3048 3048 3049 3049 3050 3051 3052 3053 3054 3055 3056 3056 3057 3058 3059 3059 3060 3061 3061 3061 3061 3061 3061 3061 3062 3061 3061 3061 3061
3016 3015 3014 3013 3012 3010 3009 3007 3006 3005 3004 3003 3002 3001 3000 3000 2999 2997 2996 2996 2996 2995 2994 2995 2996 2997 2999 3001 3003 3005 3007 3007 3008 3010 3012 3014 3016 3018 3018 3019 3020 3021 3022 3023 3025 3027 3028 3029 3030 3031 3032 3034 3036 3037 3039 3040 3041 3042 3043 3044 3045 3046 3047 3048 3049 3050 3050 3051 3052 3053 3053 3054 3055 3056 3056 3056 3056 3057 3057 3057 3057 3057 3056 3056 3056
3014 3013 3012 3010 3008 3007 3006 3004 3003 3002 3000 2999 2998 2997 2996 2995 2995 2994 2992 2992 2991 2990 2990 2989 2989 2989 2990 2992 2994 2996 2998 2999 3001 3003 3005 3006 3008 3010 3010 3011 3013 3014 3016 3018 3020 3022 3022 3023 3024 3025 3026 3028 3029 3031 3032 3034 3035 3036 3037 3038 3039 3040 3042 3042 3043 3044 3045 3045 3046 3047 3048 3049 3050 3051 3051 3052 3052 3052 3052 3052 3052 3052 3051 3051 3051
3013 3011 3009 3007 3005 3004 3004 3002 3001 2999 2998 2996 2995 2994 2993 2991 2990 2990 2989 2989 2988 2987 2986 2985 2984 2984 2983 2983 2985 2987 2989 2991 2993 2994 2996 2998 2999 3001 3002 3004 3005 3007 3009 3011 3013 3014 3015 3016 3017 3018 3019 3021 3022 3024 3025 3026 3028 3029 3031 3032 3033 3034 3035 3036 3037 3038 3039 3040 3041 3042 3043 3044 3045 3046 3046 3046 3047 3047 3047 3047 3047 3046 3046 3046 3046
3011 3009 3007 3005 3004 3003 3001 3000 2998 2997 2996 2994 2993 2992 2990 2989 2987 2986 2986 2985 2985 2984 2983 2982 2981 2981 2980 2979 2978 2979 2980 2982 2984 2986 2988 2990 2991 2993 2994 2996 2997 2999 3001 3003 3005 3006 3007 3009 3010 3011 3012 3013 3014 3016 3018 3019 3021 3022 3024 3025 3026 3028 3029 3030 3031 3032 3033 3034 3035 3036 3037 3038 3039 3040 3040 3041 3041 3041 3041 3042 3042 3042 3041 3041 3041
3007 3005 3004 3003 3001 3000 2998 2997 2996 2995 2993 2992 2990 2989 2987 2986 2985 2984 2983 2983 2982 2981 2980 2979 2979 2978 2978 2977 2976 2975 2975 2976 2977 2979 2981 2982 2984 2985 2986 2988 2989 2991 2993 2995 2997 2998 3000 3001 3002 3003 3005 3006 3007 3008 3010 3012 3013 3015 3016 3018 3020 3022 3023 3024 3025 3026 3027 3028 3028 3029 3031 3032 3033 3034 3034 3035 3035 3036 3036 3036 3036 3037 3036 3036 3036
3002 3001 3000 2999 2998 2997 2995 2994 2993 2991 2990 2989 2987 2986 2984 2983 2982 2981 2981 2980 2979 2978 2977 2976 2976 2975 2975 2975 2974 2973 2972 2972 2972 2973 2974 2975 2976 2977 2978 2980 2981 2983 2985 2987 2989 2990 2992 2993 2994 2995 2997 2998 2999 3001 3002 3004 3006 3007 3009 3011 3013 3015 3015 3016 3018 3019 3020 3021 3022 3023 3025 3026 3027 3028 3028 3029 3029 3030 3030 3031 3031 3031 3031 3031 3031
3000 2998 2997 2995 2994 2993 2992 2991 2989 2988 2987 2986 2984 2983 2982 2980 2979 2978 2977 2977 2976 2975 2974 2973 2972 2971 2971 2971 2971 2970 2969 2969 2968 2968 2968 2969 2969 2970 2970 2972 2973 2975 2976 2978 2979 2981 2983 2985 2986 2987 2989 2990 2991 2993 2995 2996 2998 3000 3001 3004 3006 3007 3008 3009 3011 3012 3014 3015 3016 3017 3018 3020 3021 3021 3022 3023 3023 3024 3025 3025 3025 3026 3026 3026 3026
2997 2995 2993 2992 2990 2988 2987 2985 2984 2983 2982 2981 2980 2979 2977 2976 2976 2975 2974 2973 2973 2972 2971 2970 2968 2968 2967 2966 2966 2966 2965 2965 2964 2964 2964 2964 2964 2963 2964 2965 2966 2967 2969 2970 2971 2973 2974 2976 2978 2979 2980 2982 2983 2985 2986 2988 2990 2992 2994 2996 2998 3000 3001 3003 3004 3006 3007 3008 3009 3011 3012 3014 3014 3015 3016 3017 3017 3018 3018 3019 3019 3020 3020 3020 3020
2993 2992 2990 2988 2986 2984 2982 2980 2978 2977 2975 2975 2975 2974 2973 2972 2970 2969 2968 2968 2968 2967 2966 2965 2964 2963 2963 2962 2961 2961 2960 2960 2959 2959 2959 2959 2959 2959 2959 2959 2960 2961 2962 2963 2964 2965 2967 2968 2969 2971 2972 2973 2975 2976 2978 2980 2982 2984 2986 2988 2990 2992 2994 2995 2997 2999 3000 3002 3003 3005 3006 3007 3008 3008 3009 3010 3011 3011 3012 3013 3013 3014 3014 3015 3015
2988 2987 2985 2984 2982 2980 2979 2977 2975 2973 2971 2969 2968 2968 2968 2967 2965 2964 2962 2961 2961 2961 2960 2959 2959 2958 2958 2957 2956 2956 2955 2955 2954 2954 2954 2954 2953 2954 2954 2953 2954 2955 2955 2956 2957 2958 2959 2960 2961 2963 2964 2965 2966 2968 2969 2971 2973 2975 2978 2980 2982 2985 2986 2988 2990 2992 2994 2995 2997 2998 2999 3000 3001 3002 3003 3004 3004 3005 3006 3007 3008 3008 3008 3009 3009
2982 2981 2980 2978 2977 2975 2973 2972 2971 2969 2967 2965 2963 2961 2960 2959 2958 2957 2956 2955 2954 2953 2953 2952 2952 2952 2951 2951 2950 2950 2949 2949 2948 2948 2948 2947 2947 2947 2947 2947 2948 2948 2948 2949 2949 2950 2951 2952 2953 2954 2956 2957 2958 2959 2961 2962 2965 2967 2969 2972 2974 2977 2979 2981 2983 2985 2987 2989 2990 2991 2992 2994 2994 2995 2996 2997 2998 2999 2999 3000 3001 3002 3002 3002 3002
2978 2976 2975 2973 2971 2969 2967 2965 2965 2963 2962 2961 2958 2956 2954 2952 2951 2950 2949 2948 2947 2946 2946 2945 2945 2945 2944 2943 2943 2942 2942 2941 2941 2941 2940 2940 2940 2940 2940 2940 2941 2941 2941 2941 2941 2941 2941 2942 2943 2945 2947 2948 2950 2951 2952 2954 2957 2959 2961 2964 2967 2969 2972 2973 2976 2978 2980 2982 2983 2984 2985 2986 2987 2988 2989 2990 2991 2992 2993 2994 2994 2995 2995 2996 2996
2974 2971 2970 2968 2966 2963 2961 2959 2958 2957 2956 2954 2952 2950 2948 2945 2944 2942 2942 2941 2940 2939 2939 2938 2938 2937 2937 2937 2936 2935 2935 2934 2934 2933 2933 2932 2932 2932 2932 2932 2933 2933 2933 2933 2933 2933 2933 2934 2935 2936 2938 2939 2941 2943 2944 2947 2949 2951 2953 2956 2959 2961 2964 2966 2968 2970 2972 2974 2975 2977 2978 2979 2980 2981 2982 2984 2985 2986 2987 2987 2987 2988 2989 2989 2990
2969 2966 2964 2961 2959 2957 2955 2953 2952 2951 2949 2948 2946 2944 2942 2939 2937 2935 2934 2933 2932 2931 2931 2930 2930 2929 2929 2929 2928 2928 2928 2927 2927 2926 2926 2926 2925 2925 2925 2925 2925 2925 2925 2925 2925 2926 2926 2927 2928 2929 2930 2931 2933 2934 2936 2939 2941 2943 2945 2948 2950 2953 2955 2958 2960 2962 2964 2966 2968 2969 2970 2971 2972 2974 2975 2977 2978 2979 2980 2980 2981 2981 2982 2982 2983
2964 2961 2958 2956 2953 2951 2948 2946 2945 2944 2943 2941 2940 2938 2935 2933 2931 2929 2928 2926 2924 2924 2923 2923 2922 2921 2921 2920 2920 2920 2920 2920 2920 2919 2919 2919 2919 2918 2918 2918 2917 2917 2917 2917 2918 2918 2919 2920 2921 2922 2923 2924 2925 2926 2928 2930 2932 2934 2937 2939 2942 2945 2947 2949 2952 2954 2956 2958 2959 2961 2962 2963 2965 2967 2968 2970 2971 2972 2972 2973 2974 2974 2975 2976 2976
2960 2957 2953 2951 2948 2945 2942 2940 2938 2936 2935 2934 2933 2931 2930 2928 2926 2923 2921 2919 2917 2916 2915 2915 2914 2913 2913 2912 2912 2912 2912 2912 2912 2911 2911 2911 2911 2911 2910 2910 2910 2909 2910 2910 2910 2911 2912 2912 2913 2914 2916 2917 2918 2919 2921 2923 2924 2926 2928 2931 2934 2936 2939 2941 2943 2945 2947 2949 2951 2952 2954 2956 2957 2959 2961 2962 2963 2964 2965 2966 2966 2967 2968 2969 2969
2955 2952 2949 2946 2943 2940 2937 2935 2932 2930 2928 2927 2925 2924 2923 2921 2920 2918 2916 2913 2911 2909 2907 2907 2906 2905 2905 2904 2904 2903 2903 2903 2903 2903 2903 2902 2902 2902 2902 2902 2902 2902 2902 2902 2903 2903 2904 2904 2906 2907 2909 2910 2911 2912 2914 2916 2917 2919 2921 2923 2926 2928 2930 2932 2934 2936 2938 2941 2942 2944 2946 2948 2950 2951 2953 2954 2955 2957 2958 2959 2959 2960 2961 2961 2962
2950 2947 2944 2941 2938 2935 2932 2930 2927 2925 2922 2921 2919 2917 2915 2914 2912 2911 2909 2907 2905 2903 2901 2899 2898 2897 2896 2895 2895 2894 2894 2894 2894 2894 2894 2894 2894 2894 2894 2895 2895 2895 2896 2895 2895 2896 2896 2897 2898 2900 2901 2903 2904 2906 2907 2909 2910 2912 2914 2916 2918 2920 2922 2924 2926 2928 2930 2932 2934 2936 2938 2940 2942 2943 2944 2946 2947 2949 2950 2951 2952 2952 2953 2954 2954
2944 2941 2939 2936 2933 2929 2927 2924 2922 2919 2916 2914 2912 2910 2908 2906 2905 2903 2902 2900 2898 2896 2894 2892 2890 2889 2887 2887 2886 2886 2885 2885 2885 2885 2885 2885 2885 2886 2886 2887 2887 2887 2888 2888 2888 2889 2889 2890 2891 2893 2894 2896 2897 2899 2900 2901 2903 2904 2906 2908 2910 2912 2914 2916 2918 2919 2922 2924 2926 2927 2929 2931 2933 2935 2936 2938 2940 2941 2942 2943 2944 2945 2946 2946 2947
2939 2936 2933 2930 2927 2924 2921 2918 2916 2913 2910 2908 2905 2903 2901 2899 2897 2896 2894 2893 2891 2889 2887 2886 2884 2882 2880 2878 2878 2877 2877 2877 2876 2876 2876 2876 2877 2877 2878 2878 2879 2879 2879 2880 2881 2881 2882 2883 2884 2886 2887 2889 2890 2891 2892 2894 2895 2897 2898 2900 2902 2904 2906 2908 2910 2911 2913 2915 2917 2919 2921 2923 2925 2927 2929 2930 2932 2933 2934 2935 2936 2937 2938 2939 2940
2934 2931 2928 2925 2921 2918 2915 2912 2909 2907 2904 2902 2899 2897 2894 2892 2890 2888 2887 2885 2884 2882 2880 2878 2876 2875 2873 2871 2870 2869 2869 2869 2868 2868 2868 2868 2868 2869 2869 2870 2870 2870 2871 2871 2872 2873 2874 2876 2877 2879 2880 2882 2883 2884 2885 2886 2888 2889 2891 2893 2894 2896 2898 2900 2902 2904 2906 2907 2909 2911 2913 2915 2917 2919 2921 2923 2924 2926 2927 2928 2929 2930 2931 2931 2932
2930 2927 2924 2920 2916 2913 2910 2907 2904 2901 2898 2896 2893 2890 2887 2885 2883 2881 2880 2878 2876 2874 2872 2870 2869 2867 2865 2864 2863 2862 2861 2861 2861 2861 2860 2860 2860 2860 2861 2861 2861 2862 2862 2863 2864 2865 2866 2868 2869 2871 2872 2874 2876 2877 2877 2878 2880 2881 2883 2885 2887 2889 2890 2892 2894 2896 2898 2900 2902 2904 2906 2908 2910 2912 2914 2915 2917 2918 2919 2920 2921 2922 2923 2924 2924
2925 2921 2918 2915 2911 2908 2904 2902 2899 2896 2893 2890 2887 2884 2881 2879 2876 2874 2872 2870 2868 2866 2864 2863 2861 2860 2858 2857 2856 2855 2854 2854 2853 2853 2853 2853 2853 2853 2853 2852 2852 2853 2854 2854 2855 2856 2858 2859 2861 2863 2864 2866 2868 2869 2869 2871 2872 2873 2875 2877 2879 2881 2883 2885 2887 2888 2890 2893 2895 2897 2899 2901 2903 2905 2906 2908 2909 2910 2911 2912 2913 2914 2915 2916 2917
2919 2916 2912 2908 2905 2902 2899 2896 2893 2890 2887 2884 2881 2878 2875 2872 2870 2867 2865 2863 2860 2858 2857 2855 2854 2852 2851 2850 2849 2848 2848 2847 2847 2846 2846 2846 2845 2845 2845 2845 2845 2845 2846 2846 2847 2848 2850 2851 2853 2855 2857 2859 2860 2861 2861 2863 2864 2866 2868 2870 2872 2874 2876 2878 2880 2882 2884 2886 2888 2890 2892 2894 2896 2897 2899 2900 2901 2902 2903 2904 2905 2906 2907 2908 2909
2915 2911 2907 2904 2900 2897 2893 2890 2887 2884 2881 2879 2876 2872 2869 2866 2864 2861 2858 2856 2854 2852 2850 2849 2847 2846 2845 2844 2842 2842 2841 2841 2840 2840 2839 2838 2838 2838 2837 2837 2837 2838 2838 2839 2839 2841 2842 2844 2845 2847 2849 2851 2852 2853 2854 2855 2857 2858 2860 2862 2865 2867 2869 2871 2873 2875 2877 2879 2881 2883 2885 2887 2888 2890 2891 2892 2893 2894 2895 2896 2897 2898 2899 2900 2901
2911 2906 2902 2898 2895 2891 2887 2884 2881 2879 2876 2873 2870 2866 2863 2860 2857 2854 2852 2850 2848 2846 2844 2843 2842 2841 2839 2838 2837 2835 2835 2834 2834 2833 2833 2832 2831 2831 2830 2830 2830 2830 2831 2831 2832 2833 2834 2836 2837 2839 2841 2843 2844 2845 2846 2847 2849 2850 2852 2855 2858 2860 2862 2864 2866 2868 2870 2872 2874 2876 2878 2879 2881 2882 2883 2884 2885 2886 2887 2888 2889 2890 2891 2893 2894
2907 2902 2897 2893 2889 2885 2882 2879 2876 2873 2870 2867 2864 2860 2857 2853 2850 2848 2845 2843 2841 2840 2839 2837 2836 2836 2834 2833 2832 2830 2829 2828 2828 2827 2826 2825 2825 2824 2824 2824 2823 2823 2824 2824 2824 2825 2826 2828 2830 2832 2834 2836 2837 2838 2839 2840 2842 2843 2845 2847 2850 2852 2855 2857 2859 2861 2863 2865 2867 2869 2870 2872 2873 2874 2875 2876 2876 2878 2879 2881 2882 2883 2884 2885 2887
2901 2897 2893 2888 2883 2879 2876 2872 2870 2867 2864 2861 2857 2854 2850 2847 2844 2842 2839 2837 2835 2834 2833 2832 2831 2831 2829 2828 2827 2825 2824 2823 2822 2821 2821 2820 2819 2818 2818 2817 2817 2817 2817 2817 2818 2819 2820 2821 2823 2824 2826 2829 2830 2831 2832 2833 2835 2837 2838 2840 2843 2845 2848 2850 2853 2855 2857 2859 2860 2862 2863 2865 2866 2867 2867 2868 2869 2870 2872 2873 2875 2876 2877 2879 2880
2895 2891 2886 2882 2877 2873 2869 2866 2863 2860 2857 2854 2851 2848 2844 2841 2839 2836 2834 2831 2829 2829 2829 2828 2827 2826 2824 2823 2822 2820 2819 2818 2816 2815 2815 2814 2813 2813 2812 2812 2812 2812 2812 2812 2812 2813 2814 2815 2817 2818 2820 2822 2823 2824 2826 2827 2829 2831 2832 2834 2837 2839 2841 2844 2846 2848 2850 2852 2853 2855 2857 2858 2859 2859 2860 2860 2861 2863 2865 2866 2868 2869 2870 2872 2872
2889 2885 2881 2876 2871 2867 2863 2860 2857 2854 2851 2848 2845 2842 2839 2836 2833 2831 2828 2826 2825 2824 2824 2823 2822 2821 2819 2818 2817 2815 2814 2813 2811 2810 2809 2809 2808 2808 2807 2807 2807 2806 2806 2807 2807 2808 2809 2810 2811 2812 2814 2815 2817 2818 2820 2821 2824 2826 2827 2829 2831 2834 2835 2837 2839 2841 2843 2844 2846 2848 2850 2852 2852 2852 2853 2853 2855 2856 2857 2859 2860 2862 2863 2864 2865
2882 2878 2875 2870 2865 2861 2857 2854 2851 2848 2846 2843 2839 2836 2833 2830 2828 2825 2823 2821 2820 2820 2819 2818 2817 2816 2815 2813 2812 2810 2809 2808 2806 2805 2804 2804 2803 2803 2803 2802 2802 2802 2802 2802 2802 2803 2804 2805 2806 2807 2808 2810 2811 2812 2814 2816 2819 2821 2823 2824 2826 2828 2829 2831 2833 2834 2836 2838 2840 2841 2843 2844 2845 2845 2846 2847 2849 2850 2851 2852 2853 2854 2855 2856 2858
2875 2871 2868 2863 2859 2855 2851 2848 2845 2843 2840 2837 2834 2830 2827 2825 2822 2820 2818 2817 2816 2815 2814 2813 2812 2811 2810 2808 2807 2806 2804 2803 2802 2801 2800 2799 2799 2799 2799 2798 2798 2798 2797 2798 2798 2799 2800 2801 2802 2803 2804 2805 2806 2808 2809 2811 2813 2816 2818 2819 2820 2822 2823 2825 2827 2829 2830 2832 2833 2834 2835 2836 2837 2838 2840 2841 2843 2844 2845 2846 2847 2847 2848 2849 2850
2869 2865 2861 2857 2852 2849 2845 2842 2840 2837 2834 2832 2829 2825 2822 2819 2817 2815 2814 2813 2813 2811 2810 2809 2808 2806 2805 2804 2803 2802 2800 2799 2798 2797 2796 2796 2795 2795 2795 2795 2794 2794 2794 2794 2794 2795 2796 2797 2798 2799 2800 2801 2802 2804 2805 2807 2809 2810 2812 2814 2815 2816 2818 2819 2821 2823 2825 2826 2827 2828 2829 2830 2831 2832 2833 2834 2835 2837 2838 2839 2841 2842 2842 2842 2843
2863 2858 2854 2850 2846 2842 2839 2836 2834 2832 2829 2826 2823 2820 2817 2814 2812 2811 2810 2809 2808 2807 2806 2805 2804 2802 2801 2799 2798 2798 2796 2795 2794 2793 2793 2792 2792 2792 2792 2791 2791 2791 2791 2791 2791 2792 2793 2793 2794 2795 2796 2797 2799 2800 2801 2803 2804 2806 2807 2809 2810 2812 2813 2814 2815 2817 2819 2820 2822 2823 2823 2824 2825 2825 2826 2827 2828 2830 2832 2834 2835 2836 2837 2837 2839
2857 2852 2848 2844 2840 2836 2833 2831 2828 2825 2823 2820 2818 2816 2813 2810 2808 2807 2806 2806 2805 2803 2803 2802 2800 2798 2797 2795 2794 2793 2792 2791 2791 2790 2789 2789 2788 2788 2788 2788 2788 2788 2788 2788 2789 2789 2790 2791 2792 2792 2793 2794 2796 2797 2798 2799 2801 2802 2803 2804 2806 2807 2808 2809 2810 2811 2812 2814 2816 2817 2817 2818 2818 2819 2820 2821 2822 2824 2826 2828 2829 2831 2832 2833 2834
2851 2846 2842 2838 2835 2831 2828 2825 2822 2819 2816 2814 2812 2810 2808 2806 2805 2804 2803 2802 2801 2800 2799 2798 2796 2795 2793 2792 2791 2789 2788 2788 2787 2786 2785 2785 2784 2784 2784 2784 2785 2785 2785 2785 2786 2786 2787 2788 2788 2789 2790 2791 2792 2793 2794 2795 2796 2797 2798 2799 2800 2801 2802 2804 2805 2805 2806 2807 2808 2809 2811 2812 2812 2813 2814 2816 2817 2819 2820 2822 2823 2825 2826 2827 2828
2844 2841 2837 2833 2830 2827 2824 2821 2818 2814 2811 2809 2808 2806 2804 2802 2801 2800 2799 2799 2798 2798 2796 2794 2793 2791 2790 2788 2787 2786 2785 2784 2783 2782 2782 2781 2781 2780 2780 2780 2780 2781 2781 2781 2782 2783 2783 2783 2784 2785 2785 2786 2787 2789 2789 2789 2790 2791 2792 2793 2794 2795 2796 2798 2799 2799 2799 2800 2800 2801 2803 2805 2807 2808 2809 2811 2812 2814 2815 2816 2818 2819 2820 2821 2821
2839 2835 2832 2829 2826 2823 2820 2817 2814 2810 2808 2805 2804 2802 2801 2800 2799 2798 2797 2796 2795 2794 2793 2791 2789 2788 2787 2785 2784 2782 2781 2780 2779 2779 2778 2778 2777 2777 2776 2776 2776 2776 2776 2777 2777 2778 2778 2778 2779 2779 2780 2780 2782 2782 2782 2783 2784 2785 2786 2787 2788 2789 2790 2790 2791 2792 2792 2793 2793 2794 2796 2798 2800 2802 2804 2805 2807 2808 2809 2810 2812 2813 2814 2814 2815
2833 2830 2827 2824 2822 2819 2816 2814 2811 2808 2805 2803 2801 2800 2799 2798 2797 2795 2794 2793 2792 2791 2789 2788 2786 2785 2783 2782 2781 2779 2778 2777 2776 2775 2775 2774 2774 2773 2773 2772 2772 2772 2772 2772 2772 2773 2773 2773 2773 2774 2774 2775 2776 2776 2776 2777 2778 2779 2779 2780 2781 2782 2783 2784 2784 2785 2786 2787 2788 2789 2790 2792 2793 2795 2798 2800 2801 2803 2803 2804 2806 2807 2808 2808 2809